Location: Cussy
(47.0410°N, 4.6412°E)
Time: 16:31:11
(UTC+00:00)

Okean O Rocket - Pass Details

Date: 30 November 2020
Orbit: 622 x 645 km, 98.2° (Epoch: 28 January)

Event Time Altitude Azimuth Distance (km) Brightness Sun altitude
Rises 17:34:39 0° 181° (S) 2,896 5.2 -16.5°
Reaches altitude 10° 17:36:55 10° 188° (S) 1,997 4.4 -16.8°
Maximum altitude 17:41:04 44° 261° (W) 875 2.8 -17.5°
Drops below altitude 10° 17:45:17 10° 334° (NNW) 2,025 4.3 -18.2°
Sets 17:47:36 0° 341° (NNW) 2,942 5.1 -18.6°
